TimeMST,TemperatureF,Dew PointF,Humidity,Sea Level PressureIn,VisibilityMPH,Wind Direction,Wind SpeedMPH,Gust SpeedMPH,PrecipitationIn,Events,Conditions,WindDirDegrees,DateUTC
12:48 AM,28.4,24.8,86,30.00,2.5,NW,4.6,-,0.00,Snow,Light Snow,320,2013-02-14 07:48:00
12:53 AM,27.0,24.1,89,30.06,3.0,Calm,Calm,-,0.00,Snow,Light Snow,0,2013-02-14 07:53:00
1:05 AM,26.6,24.8,93,30.00,4.0,NNW,4.6,-,0.00,Snow,Light Snow,340,2013-02-14 08:05:00
1:31 AM,28.4,24.8,86,30.00,2.5,NW,8.1,-,0.00,Snow,Light Snow,310,2013-02-14 08:31:00
1:46 AM,26.6,24.8,93,30.02,1.8,NNW,11.5,17.3,0.01,Snow,Light Snow,340,2013-02-14 08:46:00
1:49 AM,28.4,24.8,86,30.03,0.8,North,25.3,35.7,0.01,Snow,Light Snow,350,2013-02-14 08:49:00
1:53 AM,26.1,24.1,92,30.12,0.2,North,29.9,35.7,0.01,Fog-Snow,Heavy Snow,360,2013-02-14 08:53:00
2:23 AM,23.0,19.4,86,30.08,0.2,NNW,28.8,38.0,0.00,Fog-Snow,Heavy Snow,340,2013-02-14 09:23:00
2:28 AM,23.0,21.2,93,30.08,0.5,NNW,23.0,38.0,0.00,Fog-Snow,Snow,340,2013-02-14 09:28:00
2:38 AM,23.0,19.4,86,30.07,0.8,North,23.0,36.8,0.00,Snow,Light Snow,350,2013-02-14 09:38:00
2:46 AM,23.0,21.2,93,30.08,1.2,NNW,23.0,32.2,0.00,Snow,Light Snow,340,2013-02-14 09:46:00
2:53 AM,23.0,19.9,88,30.17,1.2,NNW,25.3,38.0,0.00,Snow,Light Snow,330,2013-02-14 09:53:00
3:01 AM,23.0,19.4,86,30.07,1.0,NNW,25.3,41.4,0.00,Snow,Light Snow,330,2013-02-14 10:01:00
3:15 AM,23.0,19.4,86,30.07,1.2,NNW,28.8,38.0,0.00,Snow,Light Snow,340,2013-02-14 10:15:00
3:40 AM,23.0,19.4,86,30.09,1.5,NNW,24.2,32.2,0.00,Snow,Light Snow,330,2013-02-14 10:40:00
3:44 AM,21.2,19.4,93,30.09,0.8,NNW,26.5,39.1,0.00,Snow,Light Snow,330,2013-02-14 10:44:00
3:53 AM,21.9,19.0,89,30.19,0.8,North,26.5,36.8,0.00,Snow,Light Snow,350,2013-02-14 10:53:00
4:07 AM,21.2,19.4,93,30.10,1.0,NNW,21.9,28.8,0.00,Snow,Light Snow,330,2013-02-14 11:07:00
4:15 AM,21.2,17.6,86,30.10,1.5,NNW,20.7,38.0,0.00,Snow,Light Snow,340,2013-02-14 11:15:00
4:20 AM,21.2,17.6,86,30.10,3.0,NNW,19.6,36.8,0.00,Snow,Light Snow,340,2013-02-14 11:20:00
4:28 AM,23.0,17.6,80,30.10,4.0,NNW,26.5,38.0,0.00,,Overcast,330,2013-02-14 11:28:00
4:36 AM,23.0,17.6,80,30.11,1.8,NW,25.3,39.1,0.00,Snow,Light Snow,320,2013-02-14 11:36:00
4:53 AM,23.0,16.0,74,30.21,2.5,NW,24.2,36.8,0.00,Snow,Light Snow,320,2013-02-14 11:53:00
5:01 AM,23.0,15.8,74,30.11,6.0,NW,24.2,29.9,0.00,,Overcast,310,2013-02-14 12:01:00
5:26 AM,23.0,14.0,68,30.10,2.5,NW,29.9,38.0,0.00,,Overcast,320,2013-02-14 12:26:00
5:53 AM,23.0,14.0,68,30.22,1.8,NW,32.2,40.3,0.00,Snow,Light Snow,320,2013-02-14 12:53:00
6:12 AM,23.0,14.0,68,30.12,2.5,NW,28.8,38.0,0.00,,Overcast,310,2013-02-14 13:12:00
6:19 AM,23.0,14.0,68,30.12,3.0,NW,28.8,38.0,0.00,Snow,Blowing Snow,310,2013-02-14 13:19:00
6:29 AM,23.0,12.2,63,30.13,2.5,NW,31.1,38.0,0.00,,Overcast,310,2013-02-14 13:29:00
6:42 AM,24.8,10.4,54,30.14,5.0,NW,29.9,36.8,0.00,,Haze,320,2013-02-14 13:42:00
6:53 AM,23.0,12.0,63,30.25,3.0,NW,28.8,41.4,0.00,,Overcast,320,2013-02-14 13:53:00
7:53 AM,24.1,9.0,53,30.28,10.0,NW,20.7,29.9,0.00,,Overcast,320,2013-02-14 14:53:00
8:53 AM,21.9,12.0,66,30.32,10.0,NNW,13.8,20.7,N/A,,Overcast,340,2013-02-14 15:53:00
9:53 AM,21.9,16.0,78,30.34,10.0,North,18.4,21.9,N/A,,Overcast,360,2013-02-14 16:53:00
10:53 AM,23.0,12.9,65,30.35,10.0,North,17.3,23.0,N/A,,Overcast,350,2013-02-14 17:53:00
11:53 AM,24.1,12.0,60,30.35,10.0,North,11.5,23.0,N/A,,Scattered Clouds,350,2013-02-14 18:53:00
12:53 PM,24.1,10.0,55,30.33,10.0,North,15.0,21.9,N/A,,Scattered Clouds,10,2013-02-14 19:53:00
1:53 PM,23.0,10.9,60,30.34,10.0,North,19.6,-,N/A,,Overcast,360,2013-02-14 20:53:00
2:53 PM,23.0,9.0,55,30.35,10.0,North,19.6,24.2,N/A,,Mostly Cloudy,350,2013-02-14 21:53:00
3:53 PM,21.9,8.1,55,30.37,10.0,NNW,12.7,23.0,N/A,,Mostly Cloudy,330,2013-02-14 22:53:00
4:53 PM,21.0,9.0,60,30.38,10.0,North,4.6,-,N/A,,Overcast,10,2013-02-14 23:53:00
5:53 PM,21.0,7.0,55,30.38,10.0,Calm,Calm,-,N/A,,Overcast,0,2013-02-15 00:53:00
6:53 PM,19.9,8.1,60,30.37,10.0,SW,3.5,-,N/A,,Overcast,220,2013-02-15 01:53:00
7:53 PM,21.0,8.1,57,30.36,10.0,SSW,3.5,-,N/A,,Overcast,200,2013-02-15 02:53:00
8:53 PM,21.9,10.0,60,30.37,10.0,Calm,Calm,-,N/A,,Overcast,0,2013-02-15 03:53:00
9:53 PM,21.0,12.0,68,30.37,7.0,Calm,Calm,-,0.00,,Overcast,0,2013-02-15 04:53:00
10:14 PM,21.2,14.0,74,30.22,2.0,Calm,Calm,-,0.00,Snow,Light Snow,0,2013-02-15 05:14:00
10:21 PM,21.2,15.8,80,30.22,1.8,Calm,Calm,-,0.00,Snow,Light Snow,0,2013-02-15 05:21:00
10:36 PM,19.4,15.8,86,30.22,2.0,South,3.5,-,0.00,Snow,Light Snow,190,2013-02-15 05:36:00
10:53 PM,21.0,17.1,85,30.36,2.0,Calm,Calm,-,0.00,Snow,Light Snow,0,2013-02-15 05:53:00
11:00 PM,21.2,17.6,86,30.22,1.8,South,3.5,-,0.00,Snow,Light Snow,190,2013-02-15 06:00:00
11:16 PM,21.2,17.6,86,30.23,2.5,Calm,Calm,-,0.01,Snow,Light Snow,0,2013-02-15 06:16:00
11:27 PM,19.4,15.8,86,30.23,1.5,Calm,Calm,-,0.01,Snow,Light Snow,0,2013-02-15 06:27:00
11:53 PM,19.9,16.0,85,30.38,1.8,NNW,3.5,-,0.01,Snow,Light Snow,330,2013-02-15 06:53:00